Regional Weather Roundup
Issued by NWS

Home | Current Version | Previous Version | Text Only | Print | Product List | Glossary Off
Versions: 1 2 3 4 5 6 7 8 9 10 11 12 13 14 15 16 17 18 19 20 21 22 23 24 25 26 27 28 29 30 31 32 33 34 35 36 37 38 39 40 41 42 43 44 45 46 47 48 49 50

000
ASUS44 KMEG 250610
RWRTN
TENNESSEE HOURLY STATE WEATHER ROUNDUP
NATIONAL WEATHER SERVICE MEMPHIS TN
1200 AM CST SAT FEB 25 2017

TNZ002-004-019-021-049-052-054-088>092-250700-
WEST TENNESSEE

CITY           SKY/WX    TMP DP  RH WIND       PRES   REMARKS
MEMPHIS INTL   PTCLDY    50  32  50 NW16G29   29.89R
NWS MEMPHIS      N/A     52 N/A N/A MISG        N/A
JACKSON        CLEAR     51  36  56 NW10      29.84R
UNION CITY     MOCLDY    48  28  46 W14       29.83R
PARIS          CLEAR     46  32  57 W10       29.79R
HUNTINGDON     CLOUDY    52  34  50 W8G15     29.80R
$$

TNZ008-025-027-028-033-062-065-066-250700-
NORTH MIDDLE TENNESSEE

CITY           SKY/WX    TMP DP  RH WIND       PRES   REMARKS
NASHVILLE      CLOUDY    63  42  46 NW12G20   29.72R
PORTLAND       CLOUDY    55  45  67 N12       29.72R
CLARKSVILLE    CLOUDY    56  29  35 NW15G23   29.74R
SMYRNA         MOCLDY    62  49  62 NW17      29.71S
COOKEVILLE     CLOUDY    57  55  94 CALM      29.68R
GALLATIN       CLOUDY    61  39  44 W8G24     29.74R
CROSSVILLE     TSTM      58  53  84 W14       29.70S
$$

TNZ061-075-076-078-094-096-097-250700-
SOUTH MIDDLE TENNESSEE

CITY           SKY/WX    TMP DP  RH WIND       PRES   REMARKS
FAYETTEVILLE   CLOUDY    61  59  94 W6        29.72R
TULLAHOMA      CLOUDY    59  57  94 SW8       29.72R
WINCHESTER     MOCLDY    57  57 100 CALM      29.72S
MCMINNVILLE    CLOUDY    59  59 100 SW3       29.70R
COLUMBIA       PTCLDY    57  41  54 NW7       29.73R
SHELBYVILLE    MOCLDY    63  61  94 W6        29.71S
$$

TNZ017-018-042-046-047-250700-
NORTHEAST TENNESSEE

CITY           SKY/WX    TMP DP  RH WIND       PRES   REMARKS
TRI CITIES     PTCLDY    64  50  60 S8        29.71F
ELIZABETHTON   PTCLDY    61  50  67 VRB7      29.73R
$$

TNZ012-013-036-069-073-074-250700-
CENTRAL EAST TENNESSEE

CITY           SKY/WX    TMP DP  RH WIND       PRES   REMARKS
KNOXVILLE      CLOUDY    70  50  49 S17       29.64F
OAK RIDGE      LGT RAIN  65  56  72 W8G20     29.67F
GATLINBURG     MOCLDY    70  48  46 S6        29.67F
MORRISTOWN     MOCLDY    64  50  59 CALM      29.68S
JACKSBORO      CLOUDY    63  55  77 SW8G17    29.69S
$$

TNZ083-085-099-250700-
SOUTHEAST TENNESSEE

CITY           SKY/WX    TMP DP  RH WIND       PRES   REMARKS
CHATTANOOGA    PTCLDY    66  53  63 S6        29.69F
$$

SKY/WX REPORTED AS FAIR MEANS FEW OR NO CLOUDS BELOW
12 THOUSAND FEET.




USA.gov is the U.S. government's official web portal to all federal, state and local government web resources and services.